Location: Unspecified
(0.0000°N, 0.0000°E)
Time: 07:59:31
(UTC+00:00)

A-11 Canister half - All Passes

Search period start: 20 October 2021 00:00
Search period end: 30 October 2021 00:00
Orbit: 1525 x 1683 km, 47.3° (Epoch: 19 October)

Date Brightness Start Highest point End Pass type
(mag) Time Alt. Az. Time Alt. Az. Time Alt. Az.
20 Oct - 00:10:46 10° WNW 00:18:36 28° SW 00:26:42 10° S night (unlit)
20 Oct - 08:52:50 10° S 09:00:56 28° SE 09:08:47 10° ENE daylight
20 Oct - 10:56:16 10° SW 11:05:57 63° NW 11:15:19 10° NNE daylight
20 Oct - 21:42:35 10° NNW 21:51:54 59° NE 22:01:32 10° SE night (unlit)
20 Oct - 23:48:50 10° WNW 23:56:53 30° SW 00:05:13 10° S night (unlit)
21 Oct - 08:31:22 10° S 08:39:14 26° SE 08:46:50 10° E daylight
21 Oct - 10:34:30 10° SW 10:44:17 68° NW 10:53:43 10° NNE daylight
21 Oct - 12:47:16 10° WNW 12:49:40 11° NW 12:52:02 10° NNW daylight
21 Oct - 21:21:02 10° NNW 21:30:14 55° NE 21:39:45 10° SE visible
21 Oct - 23:26:57 10° WNW 23:35:11 32° SW 23:43:43 10° S night (unlit)
22 Oct - 08:09:55 10° S 08:17:29 24° SE 08:24:52 10° E daylight
22 Oct - 10:12:44 10° SW 10:22:37 72° NW 10:32:08 10° NNE daylight
22 Oct - 12:24:22 10° WNW 12:27:55 12° NW 12:31:26 10° NNW daylight
22 Oct - 20:59:28 10° NNW 21:08:34 51° NE 21:17:58 10° SE visible
22 Oct - 23:05:04 10° WNW 23:13:28 34° SW 23:22:11 10° SSE night (unlit)
23 Oct - 07:48:29 10° S 07:55:46 22° SE 08:02:51 10° E daylight
23 Oct - 09:51:01 10° SW 10:00:57 77° NW 10:10:31 10° NE daylight
23 Oct - 12:01:47 10° WNW 12:06:11 14° NW 12:10:33 10° NNW daylight
23 Oct - 20:37:56 10° NNW 20:46:54 48° NE 20:56:08 10° ESE visible
23 Oct - 22:43:13 10° WNW 22:51:46 37° SW 23:00:39 10° SSE night (unlit)
24 Oct - 07:27:06 10° S 07:34:01 21° SE 07:40:48 10° E daylight
24 Oct - 09:29:17 10° SW 09:39:16 82° NW 09:48:53 10° NE daylight
24 Oct - 11:39:22 10° W 11:44:27 15° NW 11:49:28 10° NNW daylight
24 Oct - 20:16:25 10° NNW 20:25:14 44° NE 20:34:18 10° ESE visible
24 Oct - 22:21:24 10° WNW 22:30:05 40° SW 22:39:06 10° SSE night (unlit)
25 Oct - 07:05:43 10° S 07:12:17 19° SE 07:18:42 10° E daylight
25 Oct - 09:07:33 10° SW 09:17:35 87° NW 09:27:15 10° NE daylight
25 Oct - 11:17:03 10° W 11:22:43 17° NW 11:28:18 10° N daylight
25 Oct - 19:54:54 10° NNW 20:03:34 41° NE 20:12:27 10° ESE visible
25 Oct - 21:59:35 10° WNW 22:08:24 42° SW 22:17:32 10° SSE visible
26 Oct - 06:44:23 10° S 06:50:32 18° SE 06:56:33 10° E daylight
26 Oct - 08:45:52 10° SW 08:55:55 87° SE 09:05:37 10° NE daylight
26 Oct - 10:54:50 10° W 11:00:59 18° NW 11:07:05 10° N daylight
26 Oct - 19:33:23 10° NNW 19:41:53 38° NE 19:50:35 10° ESE visible
26 Oct - 21:37:48 10° WNW 21:46:42 46° SW 21:55:58 10° SSE visible
27 Oct - 06:23:07 10° S 06:28:47 16° SE 06:34:20 10° E daylight
27 Oct - 08:24:10 10° SW 08:34:14 82° SE 08:43:56 10° NE daylight
27 Oct - 10:32:39 10° W 10:39:17 20° NW 10:45:48 10° N daylight
27 Oct - 19:11:54 10° NNW 19:20:13 35° NE 19:28:42 10° ESE visible
27 Oct - 21:16:02 10° WNW 21:25:01 49° SW 21:34:22 10° SSE visible
28 Oct - 06:01:54 10° SSE 06:07:01 15° SE 06:12:02 10° ESE daylight
28 Oct - 08:02:29 10° SW 08:12:34 77° SE 08:22:16 10° NE daylight
28 Oct - 10:10:32 10° W 10:17:34 22° NW 10:24:29 10° N daylight
28 Oct - 18:50:27 10° N 18:58:32 33° NE 19:06:47 10° ESE visible
28 Oct - 20:54:16 10° NW 21:03:21 52° SW 21:12:47 10° SSE visible
29 Oct - 05:40:48 10° SSE 05:45:15 13° SE 05:49:38 10° ESE daylight
29 Oct - 07:40:49 10° SSW 07:50:53 73° SE 08:00:35 10° NE daylight
29 Oct - 09:48:27 10° W 09:55:51 24° NW 10:03:07 10° N daylight
29 Oct - 18:29:00 10° N 18:36:51 30° NE 18:44:52 10° ESE visible
29 Oct - 20:32:32 10° NW 20:41:40 56° SW 20:51:11 10° SSE visible
